Date,TemperatureHighF,TemperatureAvgF,TemperatureLowF,DewpointHighF,DewpointAvgF,DewpointLowF,HumidityHigh,HumidityAvg,HumidityLow,PressureMaxIn,PressureMinIn,WindSpeedMaxMPH,WindSpeedAvgMPH,GustSpeedMaxMPH,PrecipitationSumIn
2013-1-1,51.6,49.5,44.4,50.4,45.3,35.3,98,86,60,30.00,29.77,7,1,7,0.28
2013-1-2,66.0,53.7,50.5,52.4,50.1,47.5,99,89,59,29.91,29.70,7,2,7,0.09
2013-1-3,51.3,47.8,44.4,47.5,44.0,40.2,97,87,73,30.07,29.89,8,2,8,0.02
2013-1-4,59.4,40.9,27.5,40.2,32.2,25.3,98,76,36,30.17,30.05,14,2,14,0.00
2013-1-5,56.7,37.8,23.0,36.3,26.5,21.3,96,70,28,30.21,30.08,8,1,8,0.00
2013-1-6,54.0,47.0,43.0,43.4,38.8,34.2,89,73,65,30.13,29.88,14,3,14,0.00
2013-1-7,60.3,40.6,28.2,38.4,31.9,27.7,99,76,33,30.21,29.94,11,2,11,0.00
2013-1-8,54.3,40.6,27.9,42.2,35.6,27.3,99,84,62,30.23,30.14,8,1,8,0.00
2013-1-9,75.0,53.6,37.8,54.9,45.7,37.0,99,78,44,30.25,30.15,6,1,6,0.00
2013-1-10,77.4,58.2,45.0,56.0,50.7,44.7,99,80,45,30.26,30.16,10,2,10,0.00
2013-1-11,78.6,63.4,59.0,63.9,59.9,55.7,99,89,57,30.18,29.94,10,2,10,0.01
2013-1-12,80.8,66.2,57.4,63.9,59.4,56.1,98,81,50,29.99,29.90,15,2,15,0.01
2013-1-13,79.7,65.6,56.7,62.7,58.9,55.3,97,81,54,29.96,29.86,14,2,14,0.00
2013-1-14,83.7,69.1,62.6,63.7,60.5,58.3,88,75,50,29.95,29.85,16,4,16,0.00
2013-1-15,80.1,67.6,58.8,61.5,59.4,57.1,95,76,50,29.95,29.82,13,2,13,0.00
2013-1-16,68.5,58.2,53.4,64.3,56.1,52.0,99,93,79,29.84,29.75,9,2,9,0.00
2013-1-17,70.7,55.9,41.5,65.2,52.6,35.0,96,89,69,29.85,29.49,30,4,30,0.00
2013-1-18,59.9,41.7,29.3,39.5,31.4,23.7,96,73,26,30.30,29.85,17,3,17,0.00
2013-1-19,63.9,39.2,23.7,37.7,29.8,22.9,99,76,27,30.30,30.05,14,2,14,0.00
2013-1-20,69.1,47.4,34.0,39.4,35.7,32.1,99,70,30,30.06,29.85,14,4,14,0.00
2013-1-21,64.8,46.1,28.9,40.2,33.3,22.6,99,69,21,29.90,29.78,21,4,21,0.00
2013-1-22,53.2,42.0,29.5,28.7,18.2,8.7,65,40,18,30.04,29.85,20,6,20,0.00
2013-1-23,56.1,37.6,22.1,30.6,21.9,17.2,88,56,30,30.16,29.97,17,3,17,0.00
2013-1-24,66.2,48.7,34.2,42.4,30.3,7.3,85,56,15,30.21,29.85,20,7,20,0.00
2013-1-25,37.2,30.7,24.8,22.1,12.7,6.3,66,47,33,30.29,29.95,16,3,16,0.00
2013-1-26,64.6,41.7,31.1,38.0,28.9,21.8,85,63,27,30.06,29.89,8,2,8,0.00
2013-1-27,55.9,38.5,28.2,31.7,29.1,27.3,99,73,35,30.33,30.06,10,2,10,0.00
2013-1-28,61.2,43.7,34.7,47.3,36.1,28.2,99,75,55,30.29,30.10,8,2,8,0.00
2013-1-29,82.2,52.3,35.6,61.0,46.5,35.3,99,84,45,30.11,29.87,15,1,15,0.00
2013-1-30,79.3,68.7,57.2,64.8,61.6,55.3,99,79,52,29.88,29.31,24,6,24,0.00
2013-1-31,56.7,46.6,37.0,55.2,31.1,17.9,97,58,26,29.90,29.45,30,12,30,0.00
2013-2-1,53.8,42.7,34.5,31.2,17.2,-5.1,72,43,10,30.14,29.86,24,7,24,0.00
2013-2-2,58.8,36.3,19.6,28.1,14.4,-1.6,89,51,10,30.17,29.91,20,2,20,0.00
2013-2-3,61.0,46.7,35.1,37.8,31.6,15.6,92,61,19,29.95,29.71,30,9,30,0.00
2013-2-4,51.8,38.8,25.5,31.4,27.1,21.3,97,67,33,29.95,29.82,8,1,8,0.00
2013-2-5,68.0,46.0,30.0,47.1,36.5,28.3,95,72,39,29.88,29.75,20,4,20,0.00
2013-2-6,79.2,53.8,40.1,49.0,39.6,22.8,99,69,15,29.97,29.80,9,2,9,0.00
2013-2-7,47.5,43.3,37.4,45.6,39.7,34.3,99,88,72,29.99,29.76,14,3,14,0.00
2013-2-8,64.4,49.2,42.1,48.9,43.4,39.1,99,82,57,29.84,29.68,19,6,19,0.00
2013-2-9,72.3,45.8,26.6,45.2,27.7,10.7,99,60,10,30.11,29.84,8,2,8,0.00
2013-2-10,69.1,47.5,32.4,53.4,37.5,27.8,93,71,38,30.20,29.93,15,2,15,0.00
2013-2-11,71.8,59.3,52.5,62.4,56.8,50.7,99,92,68,30.05,29.83,20,5,20,0.00
2013-2-12,66.9,55.5,49.3,55.6,47.0,34.5,98,77,37,29.92,29.72,9,3,9,0.00
2013-2-13,52.3,49.2,46.6,51.7,47.3,40.5,99,93,71,29.78,29.49,22,5,22,0.00
2013-2-14,55.9,43.7,31.5,40.8,37.2,31.0,99,80,50,29.90,29.64,14,2,14,0.00
2013-2-15,69.6,45.4,28.2,43.9,33.2,27.2,99,72,23,29.91,29.76,13,2,13,0.00
2013-2-16,49.6,39.2,34.3,39.8,34.7,19.9,99,85,45,29.81,29.63,22,3,22,0.00
2013-2-17,50.2,35.0,23.4,19.9,13.0,1.3,70,45,14,30.05,29.81,21,7,21,0.00
2013-2-18,64.8,39.5,21.9,27.1,21.4,14.2,94,57,18,30.19,30.05,11,2,11,0.00
2013-2-19,58.5,42.2,32.2,48.6,36.5,25.5,99,81,55,30.06,29.76,15,3,15,0.00
2013-2-20,64.8,44.8,24.6,36.0,23.9,12.2,93,50,13,29.95,29.82,14,4,14,0.00
2013-2-21,71.4,45.4,28.4,31.5,25.5,13.4,89,54,11,30.01,29.87,9,2,9,0.00
2013-2-22,51.1,42.9,38.3,39.4,36.8,29.4,99,82,46,30.01,29.91,13,4,13,0.00
2013-2-23,44.8,40.8,37.9,43.8,40.3,37.7,99,98,92,29.95,29.67,11,3,11,0.00
2013-2-24,72.0,52.7,43.5,45.7,41.8,33.3,99,73,26,29.80,29.64,13,4,13,0.00
2013-2-25,46.2,42.7,37.2,39.7,34.8,29.9,99,75,55,29.91,29.77,15,4,15,0.00
2013-2-26,48.6,41.1,36.0,45.7,39.4,33.2,99,94,74,29.83,29.39,14,5,14,0.00
2013-2-27,64.4,47.7,36.5,43.4,36.4,30.4,93,68,38,29.67,29.50,18,6,18,0.00
2013-2-28,55.0,44.5,35.4,39.0,33.0,27.7,94,67,41,29.71,29.58,25,8,25,0.00
2013-3-1,59.0,41.7,26.6,32.5,28.5,24.1,92,63,33,29.77,29.65,19,4,19,0.00
2013-3-2,52.2,37.9,30.4,38.2,32.7,27.5,98,82,50,29.75,29.66,20,4,20,0.00
2013-3-3,52.7,39.6,30.9,34.5,25.3,18.9,91,60,29,29.80,29.71,18,4,18,0.00
2013-3-4,63.3,39.3,20.3,28.7,19.1,6.7,95,53,11,29.99,29.79,12,3,12,0.00
2013-3-5,74.3,51.8,36.9,57.7,40.5,26.1,99,66,44,29.89,29.46,19,4,19,0.00
2013-3-6,56.8,44.9,35.1,51.2,28.4,19.9,82,53,33,29.88,29.50,30,14,30,0.00
2013-3-7,64.8,41.9,24.8,34.7,28.1,23.8,99,65,25,30.05,29.88,14,2,14,0.00
2013-3-8,66.2,45.1,26.4,34.0,24.8,11.7,92,54,12,30.12,29.99,14,3,14,0.00
2013-3-9,72.5,46.2,25.5,35.7,29.0,22.5,97,60,17,30.16,30.02,10,1,10,0.00
2013-3-10,78.1,52.2,34.3,43.3,36.8,28.7,98,64,18,30.09,29.94,11,2,11,0.00
2013-3-11,75.0,57.3,39.9,56.5,47.5,36.9,92,72,44,29.99,29.65,14,2,14,0.00
2013-3-12,72.9,60.6,52.5,58.8,51.3,38.4,99,75,38,29.76,29.57,17,5,17,0.00
2013-3-13,62.8,49.6,31.8,39.3,29.5,18.3,99,53,19,29.93,29.76,28,8,28,0.00
2013-3-14,60.6,43.1,26.8,28.2,20.2,9.9,80,45,14,30.13,29.93,14,4,14,0.00
2013-3-15,75.6,50.9,28.2,40.9,30.5,21.5,92,51,23,30.03,29.77,20,4,20,0.00
2013-3-16,82.6,65.6,54.7,48.3,41.0,27.5,67,45,14,29.78,29.62,27,8,27,0.00
2013-3-17,82.4,64.5,53.1,54.4,48.0,40.3,79,57,32,29.81,29.71,21,5,21,0.00
2013-3-18,62.4,54.7,44.6,53.9,48.5,44.0,99,80,68,29.88,29.65,17,4,17,0.48
2013-3-19,74.5,56.3,45.0,50.0,38.4,11.4,99,65,10,29.83,29.63,19,6,19,0.01
2013-3-20,65.3,49.4,35.2,34.0,24.6,8.9,81,44,12,29.93,29.65,13,2,13,0.00
2013-3-21,57.0,44.9,31.6,28.6,16.8,-1.8,78,38,10,29.74,29.63,23,7,23,0.00
2013-3-22,55.6,40.6,27.7,29.8,19.9,11.7,71,46,21,29.89,29.73,10,2,10,0.00
2013-3-23,50.9,44.2,37.6,47.8,40.8,29.6,99,88,58,29.85,29.70,10,2,10,0.85
2013-3-24,48.9,46.3,43.7,47.9,45.0,41.9,99,96,85,29.71,29.36,16,4,16,1.28
2013-3-25,50.2,43.2,38.5,43.1,29.9,22.0,99,62,36,29.75,29.38,36,14,36,0.33
2013-3-26,50.9,40.0,29.8,28.5,25.2,23.0,82,57,35,29.98,29.75,17,7,17,0.00
2013-3-27,62.2,42.6,24.6,30.3,24.5,16.5,98,55,18,30.10,29.98,21,4,21,0.00
2013-3-28,68.4,44.3,25.2,35.1,24.5,8.9,97,56,11,30.13,29.99,15,3,15,0.00
2013-3-29,71.8,48.1,25.9,37.0,27.1,13.9,97,54,14,30.15,30.00,15,2,15,0.00
2013-3-30,78.1,59.4,48.2,47.4,41.8,35.7,80,55,27,30.04,29.85,17,2,17,0.00
2013-3-31,77.2,61.4,53.4,62.4,55.3,45.8,99,82,44,29.87,29.67,22,4,22,0.22
2013-4-1,79.2,65.0,57.4,60.5,52.7,33.0,99,72,20,29.75,29.65,21,5,21,0.46
2013-4-2,75.4,58.6,40.5,43.9,39.9,31.9,98,55,21,29.95,29.75,17,3,17,0.00
2013-4-3,65.1,57.0,45.3,43.8,31.3,19.9,59,39,23,30.04,29.87,15,4,15,0.00
2013-4-4,54.5,44.8,39.6,46.6,42.6,37.7,99,92,55,30.04,29.77,19,4,19,0.78
2013-4-5,70.9,48.9,35.6,48.4,41.9,35.3,99,80,42,29.84,29.71,14,3,14,0.00
2013-4-6,79.2,56.0,35.1,46.3,38.1,23.5,99,63,14,30.01,29.83,13,2,13,0.00
2013-4-7,84.2,61.0,40.3,54.8,46.3,37.0,99,63,31,30.05,29.89,14,3,14,0.00
2013-4-8,83.8,67.3,52.0,59.1,54.7,51.7,99,68,37,29.99,29.88,11,2,11,0.37
2013-4-9,91.4,71.0,2.1,64.0,57.1,-42.1,96,66,10,30.02,29.91,9,1,9,0.79
2013-4-10,92.5,73.7,58.8,61.7,59.1,55.7,99,65,31,29.95,29.77,13,2,13,0.00
2013-4-11,88.0,72.7,61.9,69.5,64.0,57.5,99,76,47,29.79,29.55,11,2,11,0.04
2013-4-12,80.6,71.4,63.5,69.5,60.1,36.2,99,74,23,29.63,29.49,27,7,30,0.43
2013-4-13,86.9,65.4,45.9,50.2,42.2,31.7,88,48,15,29.82,29.63,11,3,11,0.00
2013-4-14,73.8,61.2,47.7,58.3,51.3,45.3,95,72,46,29.89,29.64,15,1,15,0.09
2013-4-15,80.8,66.8,60.3,62.6,59.5,57.8,94,79,53,29.96,29.65,11,1,13,0.00
2013-4-16,90.0,70.1,58.3,65.1,60.2,57.1,99,75,34,30.08,29.96,8,1,8,0.00
2013-4-17,91.8,72.4,56.8,65.7,60.9,56.6,99,71,36,30.05,29.91,8,2,8,0.06
2013-4-18,88.2,72.9,61.3,67.7,62.8,59.1,96,72,45,29.95,29.78,9,2,9,0.00
2013-4-19,84.4,70.8,54.0,68.9,65.1,50.5,99,83,56,29.82,29.61,21,4,21,0.30
2013-4-20,75.6,56.6,44.6,51.2,40.5,22.2,96,63,16,30.03,29.73,15,4,15,0.01
2013-4-21,72.7,55.6,39.6,48.3,42.1,37.5,99,66,30,30.18,30.03,16,3,16,0.00
2013-4-22,74.1,57.5,45.5,44.5,38.1,29.9,79,53,22,30.16,29.99,14,3,14,1.11
2013-4-23,81.5,58.4,41.7,53.6,45.5,36.8,89,65,37,30.04,29.08,11,2,11,0.00
2013-4-24,80.1,65.8,54.0,60.2,55.8,51.4,99,73,43,29.97,29.85,16,3,16,0.00
2013-4-25,87.3,70.5,60.1,62.2,55.6,35.0,93,65,18,30.03,29.88,10,2,10,0.00
2013-4-26,85.8,63.7,48.9,53.3,45.4,32.5,92,56,24,30.21,30.03,17,2,17,0.00
2013-4-27,66.0,59.8,52.5,57.4,53.6,49.8,97,80,66,30.17,30.05,8,2,8,0.09
2013-4-28,72.3,60.5,54.3,65.0,58.1,52.0,99,92,74,30.05,29.83,9,2,9,2.06
2013-4-29,80.8,64.6,59.0,65.3,60.6,56.8,99,88,56,29.88,29.75,10,1,10,0.11
2013-4-30,82.6,65.2,54.0,65.3,59.9,53.7,99,85,54,29.90,29.77,9,1,9,0.01
2013-5-1,70.2,62.7,56.8,61.4,57.7,54.6,99,84,64,30.05,29.90,11,3,11,0.08
2013-5-2,70.7,63.4,59.7,61.1,59.1,57.0,99,86,69,30.04,29.97,11,4,11,0.00
2013-5-3,67.5,61.0,56.7,60.9,57.5,53.9,99,89,73,30.00,29.86,14,4,14,0.01
2013-5-4,61.2,57.3,52.7,58.4,52.0,45.5,99,83,62,29.87,29.70,14,5,14,0.24
2013-5-5,68.7,58.8,55.2,62.7,57.1,53.8,99,94,76,29.74,29.58,11,3,11,1.62
2013-5-6,69.1,60.1,51.8,61.0,51.6,43.7,95,76,48,29.73,29.61,17,4,17,0.00
2013-5-7,74.1,60.7,50.7,55.8,51.4,48.2,96,73,44,29.77,29.68,14,2,14,0.01
2013-5-8,81.0,65.5,51.3,59.1,54.0,49.0,99,70,34,29.83,29.73,18,4,18,0.00
2013-5-9,90.9,71.5,57.7,61.7,57.2,48.8,97,65,26,29.91,29.81,11,3,11,0.00
2013-5-10,85.5,73.1,60.8,64.4,60.6,57.2,89,67,40,29.90,29.77,17,2,17,0.00
2013-5-11,81.0,72.1,62.1,66.5,63.4,60.7,96,75,56,29.81,29.66,19,3,19,0.00
2013-5-12,78.3,69.4,60.4,65.7,52.5,31.0,99,61,21,29.81,29.66,23,6,23,0.00
2013-5-13,76.3,60.6,45.7,44.8,38.5,23.8,83,49,17,30.00,29.81,15,3,15,0.00
2013-5-14,81.0,62.0,43.7,49.1,41.4,30.9,91,53,22,30.08,29.93,15,2,15,0.00
2013-5-15,91.8,73.6,60.6,61.7,55.3,48.3,73,54,35,29.94,29.78,15,5,15,0.00
2013-5-16,83.8,73.7,63.9,66.2,61.9,58.4,84,67,51,29.87,29.79,10,3,10,0.00
2013-5-17,86.9,73.3,60.8,66.4,61.1,57.3,91,69,39,29.92,29.83,14,2,14,0.00
2013-5-18,86.2,72.3,67.1,68.8,65.0,60.3,89,79,51,29.95,29.86,11,1,11,0.00
2013-5-19,79.0,71.9,67.1,70.9,68.1,65.7,99,88,71,29.93,29.83,10,1,10,0.15
2013-5-20,90.7,75.0,66.4,70.2,68.2,66.1,99,82,49,29.92,29.83,6,1,6,0.00
2013-5-21,88.5,74.3,67.8,72.8,68.7,65.5,99,84,52,29.87,29.75,10,2,10,0.00
2013-5-22,95.4,74.1,63.5,71.0,66.9,63.2,99,81,40,29.83,29.69,6,1,6,0.00
2013-5-23,85.8,74.3,66.0,70.3,66.4,60.9,99,79,45,29.77,29.66,15,3,15,0.27
2013-5-24,84.7,72.3,61.2,64.2,50.2,20.8,84,52,10,29.96,29.68,21,4,21,0.00
2013-5-25,82.6,65.0,47.8,54.5,44.0,33.8,86,51,21,30.13,29.96,12,2,12,0.00
2013-5-26,89.4,68.3,53.6,55.6,51.5,43.2,94,59,27,30.09,29.60,7,1,7,0.00
2013-5-27,92.5,72.1,55.0,64.3,57.1,51.9,91,63,31,30.06,29.62,12,1,12,0.00
2013-5-28,95.7,76.5,63.9,67.6,63.1,59.3,94,66,33,30.05,29.94,11,1,11,0.00
2013-5-29,98.4,76.4,59.9,66.8,61.3,56.5,96,63,29,30.06,29.95,8,1,8,0.00
2013-5-30,91.8,76.6,61.9,69.3,64.4,60.9,98,68,42,30.08,29.94,4,1,4,0.00
2013-5-31,100.2,79.0,66.4,70.8,67.4,64.4,99,70,32,30.04,29.89,8,1,8,0.00
2013-6-1,96.6,78.7,67.8,70.6,67.4,62.0,99,72,33,29.96,29.82,10,2,10,0.00
2013-6-2,89.6,77.8,69.8,72.5,68.8,66.2,96,75,48,29.90,29.69,12,2,12,0.00
2013-6-3,86.2,76.2,70.2,73.2,70.9,68.2,99,85,62,29.76,29.66,11,2,11,0.01
2013-6-4,93.2,78.9,67.8,74.0,70.8,67.4,99,79,48,29.84,29.73,6,1,6,0.00
2013-6-5,83.3,74.7,69.6,76.0,71.1,67.9,98,89,74,29.87,29.75,4,1,4,0.01
2013-6-6,77.4,72.7,70.0,74.5,71.3,69.7,99,95,82,29.80,29.60,9,1,9,0.69
2013-6-7,87.8,73.6,68.2,73.6,70.1,67.9,99,90,57,29.63,29.42,13,4,13,0.64
2013-6-8,89.8,75.6,68.9,73.0,69.1,66.4,99,82,52,29.88,29.63,12,3,12,0.11
2013-6-9,84.6,74.7,68.7,76.5,71.5,68.5,99,91,70,29.94,29.86,11,0,11,0.39
2013-6-10,82.2,73.8,70.7,75.1,72.2,70.4,99,95,74,29.90,29.75,20,3,20,0.35
2013-6-11,91.8,78.3,70.5,76.6,72.5,70.3,99,84,56,29.84,29.73,14,5,14,0.05
2013-6-12,95.9,83.2,70.9,77.1,73.0,68.4,99,74,46,29.83,29.74,11,3,11,0.00
2013-6-13,94.1,84.1,75.4,76.3,73.9,69.6,99,73,47,29.76,29.47,21,7,21,0.04
2013-6-14,92.1,81.6,73.4,73.0,62.0,55.0,92,55,30,29.77,29.56,23,2,23,0.00
2013-6-15,78.6,73.4,68.2,65.5,63.8,62.2,81,72,63,29.94,29.83,2,1,2,0.00
2013-6-16,93.7,76.9,65.7,71.1,66.1,61.6,91,71,42,29.98,29.83,13,2,13,0.00
2013-6-17,89.2,77.9,70.3,72.9,69.0,65.1,91,75,53,29.89,29.75,13,2,13,0.00
2013-6-18,86.2,74.8,69.8,76.1,72.0,67.6,99,91,67,29.82,29.63,23,4,23,0.12
2013-6-19,81.1,74.0,70.2,73.3,70.6,68.0,99,90,66,29.86,29.68,5,1,5,0.02
2013-6-20,91.4,76.0,65.1,71.7,66.4,62.8,99,76,41,30.00,29.86,8,1,8,0.00
2013-6-21,89.8,75.5,63.9,69.2,64.2,61.1,99,71,40,30.05,29.96,5,1,5,0.00
2013-6-22,93.6,77.0,63.5,71.3,65.6,61.3,93,70,40,30.02,29.90,8,1,8,0.00
2013-6-23,89.2,78.6,69.8,74.4,71.3,68.7,99,79,58,30.02,29.93,8,1,8,0.00
2013-6-24,90.9,78.6,70.5,75.7,72.5,68.5,99,83,52,30.03,29.91,10,1,10,0.00
2013-6-25,91.6,78.1,70.3,77.0,72.3,67.3,99,84,56,29.97,29.83,18,2,18,0.00
2013-6-26,90.5,78.5,72.3,76.6,73.3,70.4,99,85,57,29.89,29.74,13,3,13,0.00
2013-6-27,92.1,81.5,74.1,76.1,74.2,72.4,99,80,55,29.78,29.57,19,6,19,0.09
2013-6-28,98.4,83.1,72.7,75.8,73.5,70.0,99,75,41,29.63,29.45,21,6,21,0.00
2013-6-29,90.0,77.6,72.5,74.2,70.8,67.8,97,80,51,29.52,29.46,16,4,21,0.09
2013-6-30,85.8,75.7,69.1,74.8,72.2,68.5,99,90,62,29.63,29.52,11,2,11,0.31
2013-7-1,84.2,75.0,69.3,73.8,71.3,69.0,99,89,68,29.75,29.62,6,1,6,0.14
2013-7-2,80.1,75.8,72.0,75.2,73.1,71.7,99,91,80,29.92,29.75,6,1,6,0.06
2013-7-3,83.5,75.9,72.5,76.4,74.0,72.2,99,94,74,29.99,29.92,3,0,3,0.69
2013-7-4,88.9,77.2,69.4,80.1,72.8,69.1,99,88,59,30.01,29.92,14,1,14,0.34
2013-7-5,87.8,77.6,72.5,78.4,74.8,72.2,99,92,66,30.04,29.97,6,0,6,0.24
2013-7-6,88.9,78.3,72.5,79.0,74.3,72.2,99,89,61,30.03,29.91,4,0,4,0.22
2013-7-7,90.7,80.4,73.9,78.2,75.7,73.5,99,86,61,29.99,29.88,8,1,8,0.09
2013-7-8,94.3,78.3,71.2,78.3,74.0,70.9,99,88,59,30.01,29.92,11,2,11,0.07
2013-7-9,91.8,81.3,72.5,77.5,74.4,72.2,99,81,56,30.00,29.86,11,2,11,0.00
2013-7-10,86.2,76.4,72.3,76.5,73.7,72.0,99,92,70,29.95,29.79,17,1,17,0.12
2013-7-11,85.6,75.9,72.9,80.2,74.4,72.6,99,96,72,29.82,29.68,8,1,8,1.12
2013-7-12,91.2,76.4,70.9,77.0,72.9,69.0,99,90,58,29.77,29.68,4,1,4,0.43
2013-7-13,80.2,74.4,69.6,74.7,71.9,68.5,99,92,78,29.88,29.72,5,1,5,0.18
2013-7-14,89.1,76.8,72.3,76.5,74.0,72.0,99,92,65,30.03,29.84,8,1,8,0.13
2013-7-15,86.5,77.0,72.0,79.1,74.5,71.7,99,92,70,30.10,30.02,4,0,4,0.53
2013-7-16,99.3,80.9,70.3,79.0,73.8,70.3,100,82,42,30.12,30.02,4,0,4,0.00
2013-7-17,91.9,79.8,72.7,79.5,75.3,70.7,100,87,56,30.06,29.92,7,1,7,0.07
2013-7-18,95.0,79.0,68.7,77.7,73.2,68.7,100,84,50,30.02,29.86,9,1,9,0.00
2013-7-19,100.4,82.1,72.5,76.5,74.1,69.8,100,79,40,29.94,29.81,8,1,8,0.00
2013-7-20,91.8,79.0,74.7,77.1,74.4,72.6,100,87,58,29.88,29.75,9,1,9,0.46
2013-7-21,91.8,79.4,73.4,77.6,75.1,73.4,100,88,60,29.85,29.73,12,3,12,0.01
2013-7-22,89.2,78.3,71.2,76.6,73.8,71.2,100,87,59,29.82,29.68,17,4,17,0.00
2013-7-23,91.9,80.6,73.9,76.4,73.4,68.8,100,80,53,29.72,29.60,14,6,14,0.00
2013-7-24,95.4,81.1,72.1,77.2,74.1,70.5,100,81,52,29.65,29.57,8,2,8,0.00
2013-7-25,96.1,80.1,70.5,75.2,72.6,69.7,100,80,48,29.79,29.62,6,1,6,0.00
2013-7-26,94.3,79.9,70.2,75.2,73.0,70.2,100,81,52,29.90,29.79,4,0,4,0.00
2013-7-27,86.4,78.5,73.6,80.1,75.5,72.1,100,91,69,29.85,29.71,11,1,11,0.32
2013-7-28,88.3,78.4,70.2,75.7,72.2,69.6,100,83,58,29.81,29.74,11,3,11,0.00
2013-7-29,88.9,80.0,72.1,77.1,74.0,71.2,100,83,58,29.94,29.81,9,1,9,0.01
2013-7-30,96.1,78.7,71.8,77.1,74.2,69.7,100,88,46,30.01,29.92,4,0,4,0.00
2013-7-31,84.4,76.5,72.7,80.0,74.4,71.1,100,93,81,29.96,29.81,9,1,9,0.01
2013-8-1,90.0,78.2,72.1,76.9,73.7,71.2,100,87,60,29.84,29.69,11,3,11,0.00
2013-8-2,92.1,79.3,71.8,78.4,75.0,71.8,100,88,59,29.83,29.73,11,1,11,0.00
2013-8-3,89.1,81.0,73.9,77.9,74.2,68.6,100,82,54,29.85,29.76,14,3,14,0.00
2013-8-4,95.9,81.6,73.4,76.0,74.0,72.3,100,79,51,29.81,29.73,7,2,7,0.00
2013-8-5,96.3,81.3,72.7,75.9,71.2,67.0,97,73,44,29.87,29.77,4,0,4,0.00
2013-8-6,82.8,76.2,73.0,77.0,71.5,67.0,100,86,76,29.85,29.78,5,1,5,0.01
2013-8-7,90.5,79.0,70.9,75.4,72.3,69.9,100,82,55,29.88,29.80,6,1,6,0.01
2013-8-8,97.3,80.8,73.2,79.2,74.3,71.8,99,82,51,29.88,29.81,8,1,8,0.00
2013-8-9,93.0,81.7,74.5,78.4,75.9,74.3,100,84,56,29.92,29.83,11,2,11,0.00
2013-8-10,102.2,83.6,74.8,77.4,75.1,72.0,100,78,43,29.94,29.85,13,2,13,0.00
2013-8-11,93.9,82.8,73.6,77.7,74.4,71.6,100,78,50,29.95,29.85,16,3,16,0.00
2013-8-12,95.4,83.7,74.7,78.2,75.3,71.9,100,78,49,29.91,29.76,12,4,12,0.00
2013-8-13,91.2,82.1,73.9,78.4,75.4,72.6,100,82,57,29.81,29.65,20,5,20,0.00
2013-8-14,80.4,76.4,72.0,75.4,71.9,67.0,100,86,67,29.83,29.68,7,1,7,0.00
2013-8-15,73.2,70.3,67.1,68.9,64.4,61.4,93,82,71,29.92,29.83,8,1,8,0.00
2013-8-16,69.3,64.1,61.9,64.2,63.2,61.9,100,97,83,29.94,29.87,6,1,6,0.01
2013-8-17,67.5,64.9,62.4,67.5,64.9,62.3,100,100,100,29.97,29.90,3,0,3,0.00
2013-8-18,85.1,72.3,67.1,75.3,70.2,67.1,100,94,69,30.02,29.92,4,0,9,8.50
2013-8-19,82.8,72.1,68.9,76.3,71.6,68.9,100,98,79,30.00,29.88,5,0,5,0.73
2013-8-20,88.5,75.3,70.9,77.7,73.6,70.9,100,95,68,30.00,29.90,4,0,4,0.12
2013-8-21,88.3,76.9,68.9,77.6,73.8,68.9,100,91,61,30.05,29.92,9,1,9,0.50
2013-8-22,88.9,79.1,70.5,76.6,73.9,70.5,100,85,61,29.99,29.83,14,2,14,0.04
2013-8-23,96.6,79.3,71.1,77.2,73.5,70.5,100,85,49,29.89,29.77,10,2,10,0.01
2013-8-24,86.2,74.9,69.6,74.4,69.8,66.6,100,85,59,30.04,29.83,8,2,8,0.00
2013-8-25,84.0,72.4,61.5,68.0,63.4,58.8,100,76,47,30.18,30.04,11,2,11,0.00
2013-8-26,90.5,71.7,58.3,66.5,62.0,57.0,100,75,41,30.13,29.95,8,1,8,0.00
2013-8-27,90.9,75.9,62.4,73.1,66.5,61.1,99,75,49,29.97,29.82,8,2,8,0.00
2013-8-28,90.5,78.9,68.7,74.7,71.5,67.4,100,80,55,29.86,29.76,11,3,11,0.00
2013-8-29,94.1,81.7,71.2,77.7,74.0,71.2,100,79,53,29.79,29.69,11,2,11,0.00
2013-8-30,89.1,78.9,73.2,77.8,73.9,71.4,100,86,62,29.85,29.74,11,2,11,0.06
2013-8-31,90.7,79.0,70.2,77.4,73.5,70.2,100,85,58,29.81,29.69,9,2,9,0.00
2013-9-1,92.5,80.8,72.3,77.7,74.6,71.8,100,83,54,29.75,29.63,16,3,16,0.00
2013-9-2,91.2,80.5,71.6,76.5,74.1,71.6,100,83,54,29.74,29.63,14,4,14,0.00
2013-9-3,96.4,81.1,71.4,75.8,73.0,70.4,100,79,47,29.75,29.66,13,3,13,0.00
2013-9-4,97.2,80.9,69.4,76.3,72.1,67.0,100,77,47,29.88,29.75,7,1,7,0.00
2013-9-5,92.3,79.6,68.7,75.3,71.8,67.4,100,80,47,29.93,29.84,8,1,8,0.00
2013-9-6,91.4,77.0,67.1,74.9,68.6,64.3,100,78,45,29.96,29.86,11,2,11,0.00
2013-9-7,93.0,74.9,62.2,70.5,66.4,62.2,100,78,42,29.93,29.80,9,1,9,0.00
2013-9-8,97.5,77.7,65.7,72.9,68.9,65.7,100,78,40,29.83,29.73,7,1,7,0.00
2013-9-9,92.3,79.2,68.0,73.7,69.0,63.9,100,74,44,29.91,29.77,8,1,8,0.00
2013-9-10,92.7,79.4,67.8,74.3,70.5,67.7,100,77,48,30.06,29.91,8,1,8,0.00
2013-9-11,95.5,78.3,65.3,71.9,67.6,62.6,100,73,42,30.04,29.90,8,1,8,0.00
2013-9-12,90.0,77.7,69.1,73.2,70.0,66.4,100,79,52,29.92,29.68,15,4,15,0.00
2013-9-13,96.4,79.3,70.7,73.6,68.7,61.9,100,74,37,29.71,29.58,9,2,9,0.00
2013-9-14,85.1,71.8,61.0,65.0,58.3,53.2,76,63,47,29.87,29.65,11,3,11,0.00
2013-9-15,90.1,73.1,61.0,72.1,65.7,59.7,97,79,53,29.99,29.87,8,1,8,0.00
2013-9-16,90.7,78.5,71.2,78.0,72.4,68.1,100,84,50,29.95,29.84,8,1,8,0.14
2013-9-17,76.8,72.5,68.4,71.7,64.5,60.3,95,77,61,30.08,29.91,15,3,15,0.00
2013-9-18,83.3,68.0,59.9,62.5,59.5,56.6,93,76,46,30.08,29.95,9,2,9,0.00
2013-9-19,89.1,70.8,59.5,67.0,62.2,58.8,100,77,45,30.00,29.89,6,1,6,0.00
2013-9-20,89.1,74.3,63.5,68.5,65.2,61.9,100,76,47,29.91,29.74,14,2,14,0.00
2013-9-21,80.1,74.1,67.1,72.8,69.7,67.0,100,86,73,29.76,29.49,11,1,11,0.40
2013-9-22,89.8,71.8,63.0,72.2,62.7,52.6,100,77,30,29.68,29.52,12,2,12,0.01
2013-9-23,81.9,67.2,55.6,64.5,60.0,55.6,100,80,49,29.84,29.68,9,1,9,0.00
2013-9-24,78.6,67.2,56.3,65.1,60.9,56.3,100,82,54,29.88,29.74,9,1,9,0.00
2013-9-25,71.1,67.3,62.8,66.0,64.0,60.8,100,89,75,29.75,29.65,9,2,9,0.53
2013-9-26,83.8,67.8,61.0,66.4,62.3,59.8,100,85,49,29.80,29.68,11,2,11,0.07
2013-9-27,81.9,66.2,54.1,61.3,57.3,54.1,100,76,40,29.95,29.80,11,2,11,0.00
2013-9-28,76.6,64.5,53.2,59.4,55.6,53.1,100,76,47,30.04,29.94,12,2,12,0.00
2013-9-29,75.0,63.3,52.0,60.6,55.7,52.0,100,78,50,29.97,29.84,8,1,8,0.00
2013-9-30,82.9,63.9,52.3,59.8,56.1,52.3,100,79,44,29.91,29.81,6,1,6,0.00
2013-10-1,91.8,67.7,52.9,63.1,58.4,52.9,100,76,38,29.97,29.86,8,1,8,0.00
2013-10-2,87.3,69.9,55.9,65.2,61.2,55.9,100,77,44,29.97,29.87,8,1,8,0.00
2013-10-3,89.1,72.5,62.4,66.1,63.0,58.5,100,75,40,29.96,29.86,7,1,7,0.00
2013-10-4,93.6,73.2,61.3,69.4,64.4,61.3,100,77,42,29.97,29.88,8,1,8,0.00
2013-10-5,88.5,73.9,60.3,68.5,64.6,60.3,100,77,44,29.95,29.83,7,1,7,0.00
2013-10-6,91.8,74.0,61.2,70.7,65.9,61.2,100,78,47,29.87,29.70,7,1,7,0.00
2013-10-7,81.9,74.8,70.0,76.3,72.5,67.7,100,93,70,29.74,29.62,11,2,11,0.00
2013-10-8,70.0,62.8,56.7,70.0,57.0,52.4,100,82,68,29.96,29.73,14,4,14,0.00
2013-10-9,81.0,63.9,54.7,55.5,50.9,47.6,96,65,36,30.00,29.90,11,3,11,0.00
2013-10-10,85.1,63.4,50.0,58.1,52.9,49.2,98,72,37,29.93,29.79,12,2,12,0.00
2013-10-11,85.1,70.2,62.1,61.8,59.5,56.4,94,72,42,29.84,29.72,12,2,12,0.00
2013-10-12,79.5,68.0,55.6,65.4,60.9,55.6,100,80,53,29.86,29.76,6,1,6,0.00
2013-10-13,76.5,69.1,64.2,66.1,64.3,62.5,99,85,67,29.99,29.86,10,2,10,0.00
2013-10-14,68.9,66.0,64.0,64.9,63.8,62.8,99,93,84,30.01,29.93,10,3,10,0.00
2013-10-15,75.2,66.5,61.5,63.8,59.7,56.1,96,80,54,29.99,29.84,11,3,11,0.00
2013-10-16,81.7,65.2,53.6,64.3,59.6,53.6,100,84,55,29.88,29.76,8,1,8,0.00
2013-10-17,77.9,68.7,62.1,69.2,65.3,62.1,100,90,67,29.80,29.69,14,2,14,0.00
2013-10-18,79.2,71.3,67.5,69.8,67.8,65.2,100,90,65,29.81,29.70,9,2,9,0.00
2013-10-19,70.7,66.2,61.7,67.3,60.9,52.1,100,85,60,29.76,29.69,14,3,14,0.32
2013-10-20,72.1,60.2,49.3,56.7,52.8,48.3,100,79,48,29.88,29.73,8,2,8,0.00
2013-10-21,72.9,58.3,46.0,57.5,52.3,46.0,100,83,51,29.94,29.81,6,1,6,0.00
2013-10-22,67.5,62.0,58.6,61.6,59.0,56.4,99,90,77,29.85,29.65,8,1,8,0.00
2013-10-23,69.4,60.5,51.3,61.3,47.8,31.5,100,70,26,29.82,29.58,26,7,26,0.00
2013-10-24,66.4,49.5,35.4,43.4,36.8,33.2,96,65,35,30.01,29.82,13,2,13,0.00
2013-10-25,60.8,48.9,39.9,43.2,37.7,29.8,95,68,32,30.15,29.94,14,2,14,0.00
2013-10-26,61.9,44.7,29.8,39.6,33.3,28.5,97,69,33,30.17,29.94,12,2,12,0.00
2013-10-27,73.4,55.8,42.6,53.2,44.4,37.8,86,67,47,29.95,29.87,14,2,14,0.00
2013-10-28,75.2,62.7,55.6,59.2,54.3,49.8,98,76,45,30.07,29.92,10,1,10,0.00
2013-10-29,75.9,60.8,48.9,58.4,53.4,48.9,100,80,46,30.15,30.05,14,2,14,0.00
2013-10-30,80.2,63.3,51.6,58.5,55.0,51.0,100,78,45,30.13,29.98,12,2,12,0.00
2013-10-31,78.4,66.7,54.7,66.5,59.9,54.4,100,80,54,30.01,29.75,9,1,9,0.00
2013-11-1,71.8,66.6,60.4,68.1,64.2,60.5,100,92,83,29.77,29.54,25,3,25,0.12
2013-11-2,71.1,61.6,51.4,63.2,52.5,42.8,100,76,38,29.77,29.57,19,5,19,0.04
2013-11-3,68.4,53.1,41.0,45.5,41.5,35.9,98,68,33,30.09,29.77,10,2,10,0.08
2013-11-4,64.6,48.9,37.8,44.1,38.8,34.6,98,72,36,30.29,30.09,11,2,11,0.04
2013-11-5,68.0,50.4,37.9,50.9,42.4,34.3,87,75,54,30.31,30.18,11,3,11,0.04
2013-11-6,74.1,59.3,49.5,59.7,53.5,48.5,100,82,59,30.19,29.96,8,3,8,0.04
2013-11-7,78.1,61.1,52.0,63.8,55.1,29.1,100,84,31,29.96,29.76,17,2,17,0.00
2013-11-8,66.6,48.8,36.5,37.9,34.3,27.4,90,61,24,30.14,29.91,9,1,9,0.00
2013-11-9,63.5,45.7,32.4,42.4,35.1,28.7,98,72,28,30.18,30.03,10,1,10,0.00
2013-11-10,73.6,54.6,44.4,45.6,42.5,38.5,87,67,31,30.06,29.95,8,2,8,0.00
2013-11-11,67.5,50.7,40.8,43.9,37.5,33.1,93,64,30,30.13,29.63,11,2,11,0.00
2013-11-12,73.2,50.0,37.4,44.4,38.1,33.8,100,70,26,30.17,29.83,24,4,24,0.00
2013-11-13,52.5,36.6,25.0,34.9,20.6,12.8,93,57,21,30.37,30.17,12,3,12,0.00
2013-11-14,65.7,38.9,22.3,30.2,21.1,6.8,95,60,11,30.31,30.14,7,1,7,0.00
2013-11-15,63.7,46.7,33.1,52.0,38.8,24.1,90,74,60,30.16,29.97,7,1,7,0.00
2013-11-16,71.1,58.5,47.5,59.4,54.4,47.5,100,87,66,30.06,29.96,9,1,9,0.00
2013-11-17,69.6,60.8,51.8,66.8,59.4,51.6,100,95,80,30.01,29.77,5,1,5,0.00
2013-11-18,81.1,71.1,58.6,70.5,59.5,34.3,100,74,26,29.78,29.66,21,5,21,0.00
2013-11-19,62.4,50.9,37.4,39.2,31.0,20.9,87,50,21,30.00,29.76,13,2,13,0.00
2013-11-20,57.2,46.8,38.1,39.2,33.9,28.2,82,62,44,30.17,29.99,17,4,17,0.00
2013-11-21,57.9,52.2,47.3,49.5,43.7,39.0,81,73,64,30.24,30.15,13,4,13,0.00
2013-11-22,67.8,57.9,51.6,62.3,54.5,48.1,100,89,75,30.19,29.98,10,2,10,0.00
2013-11-23,67.8,61.3,53.2,62.5,57.3,21.0,100,89,27,29.97,29.84,11,3,11,0.00
2013-11-24,53.2,40.9,28.0,27.6,18.7,5.2,70,43,16,30.28,29.95,14,3,14,0.00
2013-11-25,50.2,34.2,22.1,25.3,17.9,10.7,77,55,26,30.34,30.14,11,2,11,0.00
2013-11-26,48.7,41.5,35.1,48.7,34.2,20.0,100,80,40,30.15,29.45,9,3,9,0.00
2013-11-27,47.7,42.8,32.2,47.7,41.5,25.5,100,95,72,29.93,29.35,14,3,14,0.00
2013-11-28,54.5,33.7,21.6,30.6,25.2,19.8,100,74,35,30.26,29.94,10,1,10,0.00
2013-11-29,59.4,37.6,23.4,34.7,28.9,23.4,100,77,30,30.34,30.25,8,1,8,0.00
2013-11-30,51.8,39.9,29.8,34.8,30.8,26.7,89,71,48,30.39,30.18,12,3,12,0.00
2013-12-1,60.3,47.0,37.6,46.5,38.1,32.1,89,72,52,30.19,29.85,7,1,7,0.00
2013-12-2,61.9,48.1,40.8,45.9,43.2,40.8,100,85,49,29.86,29.62,9,1,9,0.00
2013-12-3,61.0,53.6,48.6,56.9,51.8,45.9,100,94,81,29.75,29.67,5,1,5,0.00
2013-12-4,70.2,60.6,56.7,67.0,60.0,56.7,100,98,85,29.87,29.73,5,1,5,0.00
2013-12-5,67.6,63.4,59.4,67.7,63.4,59.4,100,100,100,29.93,29.85,9,1,9,0.00
2013-12-6,80.8,69.5,62.4,67.6,65.1,60.8,100,87,61,29.92,29.82,17,2,17,0.00
2013-12-7,69.6,61.4,48.6,67.6,60.3,46.3,100,96,86,30.14,29.82,17,4,17,0.00
2013-12-8,48.9,42.8,38.8,47.0,42.5,38.8,100,99,91,30.17,30.06,17,5,17,0.00
2013-12-9,50.9,42.7,37.9,50.9,42.7,37.9,100,100,100,30.10,29.89,9,2,9,0.00
2013-12-10,62.4,52.9,41.5,61.5,48.9,34.9,100,88,39,30.08,29.73,25,5,25,0.00
2013-12-11,58.8,40.2,26.8,39.1,30.6,25.0,98,72,34,30.25,30.08,8,1,8,0.00
2013-12-12,58.1,41.2,30.9,37.4,29.2,17.3,97,68,24,30.22,30.08,10,2,10,0.00
2013-12-13,64.2,39.7,24.8,34.4,27.6,20.5,100,70,21,30.18,30.04,8,1,8,0.00
2013-12-14,59.7,47.2,41.9,59.7,43.4,33.5,100,87,72,30.08,29.63,14,2,14,0.00
2013-12-15,56.7,48.4,41.7,49.5,43.7,36.3,100,85,55,29.90,29.57,21,6,21,0.00
2013-12-16,61.0,42.1,28.2,38.3,33.7,28.2,100,76,37,30.02,29.90,13,3,13,0.00
2013-12-17,64.6,49.0,37.2,39.2,34.8,31.9,82,60,35,29.99,29.84,23,6,23,0.00
2013-12-18,60.4,46.2,32.7,36.0,29.2,21.3,83,54,23,30.10,29.84,11,3,11,0.00
2013-12-19,64.8,42.5,27.9,34.7,29.5,22.2,98,68,21,30.16,30.04,9,1,9,0.00
2013-12-20,67.5,49.5,37.6,56.7,45.5,34.6,100,87,67,30.06,29.95,12,1,12,0.00
2013-12-21,81.3,62.4,48.0,64.5,57.2,48.0,100,85,53,29.99,29.80,12,1,12,0.00
2013-12-22,77.2,69.6,65.3,69.3,67.3,64.1,100,93,74,29.89,29.81,21,3,21,0.00
2013-12-23,68.4,61.6,55.9,68.4,61.6,56.0,100,100,99,29.93,29.81,15,3,15,0.00
2013-12-24,56.3,47.6,35.1,56.0,39.4,23.1,100,76,41,30.18,29.93,14,4,14,0.00
2013-12-25,47.5,34.6,25.0,24.9,20.4,16.8,79,58,30,30.32,30.17,12,3,12,0.00
2013-12-26,61.5,43.2,36.5,36.0,29.7,21.3,87,60,32,30.19,30.04,8,2,8,0.00
2013-12-27,60.4,39.9,29.1,35.0,30.6,27.0,100,74,29,30.26,30.11,8,1,8,0.00
2013-12-28,52.3,38.7,27.0,41.5,32.1,27.0,100,80,43,30.22,29.95,8,1,8,0.00
2013-12-29,59.2,47.9,42.1,53.4,46.8,41.6,100,96,75,29.98,29.59,17,5,17,0.00
2013-12-30,56.7,46.5,37.8,48.5,43.6,37.8,100,90,64,29.95,29.75,14,3,14,0.00
2013-12-31,55.0,47.4,40.3,45.7,40.6,32.1,94,79,45,30.15,29.93,11,4,11,0.00
2014-1-1,50.0,40.9,34.3,41.6,37.7,34.3,100,89,70,30.18,30.00,4,1,4,0.00
2014-1-2,52.0,46.7,42.8,51.6,46.0,39.2,100,97,80,30.00,29.49,26,3,26,0.00